Weather History for Plymouth, MA

Change the Weather History Date:

Monday, September 16, 2013

  Actual Average Record
Temperature  
Mean Temperature 58 °F -  
Max Temperature 64 °F 70 °F 89 °F (1991)
Min Temperature 51 °F 50 °F 34 °F (1975)
Degree Days  
Heating Degree Days 7    
Growing Degree Days 8 (Base 50)    
Moisture  
Dew Point 51 °F    
Average Humidity 80    
Maximum Humidity 93    
Minimum Humidity 61    
Precipitation  
Precipitation 0.02 in - - ()
Sea Level Pressure  
Sea Level Pressure 30.08 in    
Wind  
Wind Speed 3 mph (NW)    
Max Wind Speed 13 mph    
Max Gust Speed -    
Visibility 10 miles    
Events Rain    
Averages and records for this station are not official NWS values.
T = Trace of Precipitation, MM = Missing Value Source: NWS Daily Summary

Daily Weather History Graph

Daily Weather History Graph

Search for Another Location

Airport:

Trip Planner

Search our weather history database for the weather conditions in past years. The results will help you decide how hot, cold, wet, or windy it might be!

Date:

Astronomy

Sep. 16, 2013 Rise Set
Actual Time 6:24 AM EDT 6:50 PM EDT
Civil Twilight 5:56 AM EDT 7:18 PM EDT
Nautical Twilight 5:23 AM EDT 7:51 PM EDT
Astronomical Twilight 4:49 AM EDT 8:24 PM EDT
Moon 4:59 PM EDT (9/16) 3:04 AM EDT (9/16)
Length of Visible Light 13h 21m
Length of Day
12h 25m
Waxing Gibbous, 90% of the Moon is Illuminated
Sep 16
Waxing Gibbous
Sep 19
Full
Sep 26
Last Quarter
Oct 4
New
Oct 11
First Quarter

Hourly Weather History & Observations

Time (EDT) Temp. Dew Point Humidity Pressure Visibility Wind Dir Wind Speed Gust Speed Precip Events Conditions
12:52 AM 55.0 °F 51.1 °F 86% 30.07 in 10.0 mi SW 5.8 mph - N/A   Clear
1:52 AM 54.0 °F 51.1 °F 90% 30.06 in 10.0 mi Calm Calm - N/A   Clear
2:52 AM 55.0 °F 52.0 °F 89% 30.05 in 10.0 mi Calm Calm - N/A   Clear
3:52 AM 55.9 °F 52.0 °F 87% 30.04 in 10.0 mi Calm Calm - N/A   Clear
4:52 AM 55.0 °F 53.1 °F 93% 30.04 in 10.0 mi Calm Calm - N/A   Clear
5:52 AM 53.1 °F 51.1 °F 93% 30.04 in 10.0 mi Calm Calm - N/A   Clear
6:52 AM 53.1 °F 50.0 °F 89% 30.05 in 10.0 mi Calm Calm - N/A   Clear
7:52 AM 57.0 °F 54.0 °F 89% 30.04 in 10.0 mi Calm Calm - N/A   Partly Cloudy
8:52 AM 57.9 °F 53.1 °F 84% 30.05 in 10.0 mi NW 6.9 mph - N/A   Overcast
9:52 AM 57.9 °F 52.0 °F 81% 30.07 in 10.0 mi WNW 4.6 mph - 0.00 in   Overcast
10:52 AM 59.0 °F 53.1 °F 81% 30.07 in 10.0 mi NW 3.5 mph - 0.00 in   Overcast
11:52 AM 57.9 °F 53.1 °F 84% 30.08 in 10.0 mi WNW 3.5 mph - 0.00 in Rain Light Rain
12:52 PM 57.0 °F 54.0 °F 89% 30.06 in 10.0 mi SSE 3.5 mph - 0.02 in   Overcast
1:52 PM 57.0 °F 54.0 °F 89% 30.05 in 10.0 mi Calm Calm - N/A   Overcast
2:52 PM 59.0 °F 53.1 °F 81% 30.04 in 10.0 mi West 4.6 mph - N/A   Overcast
3:52 PM 61.0 °F 52.0 °F 72% 30.03 in 10.0 mi Variable 4.6 mph - N/A   Clear
4:52 PM 61.0 °F 52.0 °F 72% 30.04 in 10.0 mi Calm Calm - N/A   Overcast
5:52 PM 63.0 °F 54.0 °F 72% 30.05 in 10.0 mi Calm Calm - N/A   Overcast
6:52 PM 61.0 °F 51.1 °F 70% 30.07 in 10.0 mi North 4.6 mph - N/A   Mostly Cloudy
7:52 PM 59.0 °F 48.9 °F 69% 30.10 in 10.0 mi North 8.1 mph - N/A   Partly Cloudy
8:52 PM 57.9 °F 46.0 °F 65% 30.13 in 10.0 mi NNW 10.4 mph - N/A   Clear
9:52 PM 55.0 °F 43.0 °F 64% 30.17 in 10.0 mi North 10.4 mph - N/A   Scattered Clouds
10:52 PM 53.1 °F 39.9 °F 61% 30.20 in 10.0 mi North 12.7 mph - N/A   Mostly Cloudy
11:52 PM 51.1 °F 39.0 °F 63% 30.22 in 10.0 mi North 10.4 mph - N/A   Partly Cloudy